Location: Asheville, NC
(35.6000°N, 82.5500°W)
Time: 20:14:24
(UTC-04:00)

ITAMSAT 1 - Pass Details

Date: 17 March 2018
Orbit: 784 x 796 km, 98.9° (Epoch: 24 June)

Event Time Altitude Azimuth Distance (km) Brightness Sun altitude
Rises 04:15:56 0° 35° (NE) 3,297 11.7 -40.0°
Reaches altitude 10° 04:19:19 10° 58° (ENE) 2,360 10.8 -39.4°
Maximum altitude 04:22:16 15° 93° (E) 2,011 10.2 -38.9°
Enters shadow 04:23:10 15° 105° (ESE) 2,044 10.1 -38.7°
